Weather History for Wray Municipal Airport, CO

Change the Weather History Date:

Thursday, December 26, 2013

  Actual Average (KHEQ) Record (KHEQ)
Temperature  
Mean Temperature 38 °F -  
Max Temperature 56 °F 38 °F 53 °F (2013)
Min Temperature 19 °F 14 °F 21 °F (2013)
Degree Days  
Heating Degree Days 28    
Moisture  
Dew Point 17 °F    
Average Humidity 55    
Maximum Humidity 83    
Minimum Humidity 22    
Precipitation  
Precipitation 0.00 in - - ()
Sea Level Pressure  
Sea Level Pressure 30.22 in    
Wind  
Wind Speed 10 mph (West)    
Max Wind Speed 21 mph    
Max Gust Speed 28 mph    
Visibility 10 miles    
Events      
Averages and records for this station are not official NWS values.
T = Trace of Precipitation, MM = Missing Value Source: NWS Daily Summary

Daily Weather History Graph

Daily Weather History Graph

Search for Another Location

Airport:

Trip Planner

Search our weather history database for the weather conditions in past years. The results will help you decide how hot, cold, wet, or windy it might be!

Date:

Astronomy

Dec. 26, 2013 Rise Set
Actual Time 7:09 AM MST 4:29 PM MST
Civil Twilight 6:39 AM MST 5:00 PM MST
Nautical Twilight 6:05 AM MST 5:34 PM MST
Astronomical Twilight 5:32 AM MST 6:07 PM MST
Moon 12:40 AM MST (12/26) 12:06 PM MST (12/26)
Length of Visible Light 10h 21m
Length of Day
9h 19m
Last Quarter, 38% of the Moon is Illuminated
Dec 26
Last Quarter
Jan 1
New
Jan 7
First Quarter
Jan 15
Full
Jan 23
Last Quarter

Hourly Weather History & Observations

Time (MST) Temp. Windchill Dew Point Humidity Pressure Visibility Wind Dir Wind Speed Gust Speed Precip Events Conditions
12:15 AM 24.6 °F 14.4 °F 16.5 °F 71% 30.18 in 10.0 mi WSW 10.4 mph - N/A   Clear
12:35 AM 23.9 °F 13.5 °F 16.3 °F 73% 30.17 in 10.0 mi West 10.4 mph - N/A   Clear
12:55 AM 22.1 °F 12.0 °F 15.8 °F 77% 30.17 in 10.0 mi West 9.2 mph - N/A   Clear
1:15 AM 22.3 °F 11.5 °F 16.5 °F 79% 30.17 in 10.0 mi West 10.4 mph - N/A   Clear
1:35 AM 22.6 °F 12.6 °F 16.5 °F 77% 30.17 in 10.0 mi West 9.2 mph - N/A   Clear
1:55 AM 22.1 °F 11.3 °F 16.7 °F 80% 30.17 in 10.0 mi WSW 10.4 mph - N/A   Clear
2:15 AM 22.5 °F 12.4 °F 16.5 °F 78% 30.16 in 10.0 mi WSW 9.2 mph - N/A   Clear
2:35 AM 21.7 °F 11.5 °F 16.3 °F 80% 30.16 in 10.0 mi WSW 9.2 mph - N/A   Clear
2:55 AM 21.4 °F 12.8 °F 15.8 °F 79% 30.17 in 10.0 mi West 6.9 mph - N/A   Clear
3:15 AM 19.9 °F 10.1 °F 15.4 °F 83% 30.16 in 10.0 mi SW 8.1 mph - N/A   Clear
3:35 AM 20.3 °F 9.8 °F 15.4 °F 81% 30.15 in 10.0 mi WSW 9.2 mph - N/A   Clear
3:55 AM 20.3 °F 10.6 °F 15.3 °F 81% 30.15 in 10.0 mi WSW 8.1 mph - N/A   Clear
4:15 AM 19.8 °F 10.8 °F 14.7 °F 81% 30.15 in 10.0 mi WSW 6.9 mph - N/A   Clear
4:35 AM 19.6 °F 9.7 °F 14.9 °F 82% 30.15 in 10.0 mi WSW 8.1 mph - N/A   Clear
4:55 AM 19.9 °F 12.1 °F 14.5 °F 80% 30.15 in 10.0 mi West 5.8 mph - N/A   Clear
5:15 AM 19.9 °F 13.4 °F 14.5 °F 80% 30.16 in 10.0 mi West 4.6 mph - N/A   Clear
5:35 AM 19.4 °F 8.6 °F 14.5 °F 81% 30.17 in 10.0 mi West 9.2 mph - N/A   Clear
5:55 AM 22.5 °F 11.7 °F 15.1 °F 73% 30.17 in 10.0 mi West 10.4 mph - N/A   Clear
6:15 AM 21.2 °F 11.7 °F 14.7 °F 76% 30.18 in 10.0 mi WSW 8.1 mph - N/A   Clear
6:35 AM 20.3 °F 9.8 °F 14.5 °F 78% 30.19 in 10.0 mi WSW 9.2 mph - N/A   Clear
6:55 AM 21.9 °F 10.4 °F 15.3 °F 76% 30.20 in 10.0 mi West 11.5 mph - N/A   Clear
7:15 AM 23.7 °F 13.3 °F 15.4 °F 71% 30.20 in 10.0 mi WSW 10.4 mph - N/A   Clear
7:35 AM 24.4 °F 14.2 °F 15.8 °F 70% 30.21 in 10.0 mi WSW 10.4 mph - N/A   Clear
7:55 AM 27.5 °F 18.6 °F 16.7 °F 64% 30.21 in 10.0 mi WSW 9.2 mph - N/A   Clear
8:15 AM 33.3 °F 23.7 °F 17.2 °F 52% 30.23 in 10.0 mi West 13.8 mph 19.6 mph N/A   Scattered Clouds
8:35 AM 36.0 °F 27.1 °F 16.7 °F 46% 30.23 in 10.0 mi WNW 13.8 mph 20.7 mph N/A   Overcast
8:55 AM 37.9 °F 30.0 °F 16.5 °F 42% 30.25 in 10.0 mi WNW 12.7 mph - N/A   Mostly Cloudy
9:15 AM 40.6 °F 32.7 °F 15.6 °F 36% 30.25 in 10.0 mi NW 15.0 mph - N/A   Mostly Cloudy
9:35 AM 42.1 °F 35.7 °F 16.2 °F 35% 30.25 in 10.0 mi WNW 11.5 mph - N/A   Scattered Clouds
9:55 AM 47.7 °F - 14.7 °F 27% 30.26 in 10.0 mi NW 11.5 mph 19.6 mph N/A   Clear
10:15 AM 49.8 °F - 13.8 °F 24% 30.26 in 10.0 mi NW 16.1 mph 21.9 mph N/A   Clear
10:35 AM 51.3 °F - 13.1 °F 22% 30.26 in 10.0 mi NW 18.4 mph 27.6 mph N/A   Clear
10:55 AM 52.2 °F - 14.5 °F 22% 30.26 in 10.0 mi NNW 20.7 mph 26.5 mph N/A   Clear
11:15 AM 52.7 °F - 15.8 °F 23% 30.25 in 10.0 mi NW 17.3 mph 23.0 mph N/A   Unknown
11:35 AM 53.4 °F - 16.3 °F 23% 30.25 in 10.0 mi NNW 16.1 mph 25.3 mph N/A   Unknown
11:55 AM 54.1 °F - 16.9 °F 23% 30.24 in 10.0 mi NW 15.0 mph 23.0 mph N/A   Clear
12:15 PM 54.7 °F - 17.8 °F 24% 30.23 in 10.0 mi NNW 19.6 mph 24.2 mph N/A   Clear
12:35 PM 54.7 °F - 17.1 °F 23% 30.23 in 10.0 mi NNW 13.8 mph 21.9 mph N/A   Clear
12:55 PM 54.9 °F - 17.1 °F 23% 30.23 in 10.0 mi NNW 12.7 mph 23.0 mph N/A   Clear
1:15 PM 56.3 °F - 17.4 °F 22% 30.22 in 10.0 mi NW 13.8 mph 18.4 mph N/A   Clear
1:35 PM 55.6 °F - 18.0 °F 23% 30.21 in 10.0 mi NW 16.1 mph 20.7 mph N/A   Clear
1:55 PM 55.8 °F - 18.7 °F 23% 30.21 in 10.0 mi NNW 10.4 mph 17.3 mph N/A   Clear
2:15 PM 55.6 °F - 18.0 °F 23% 30.21 in 10.0 mi NNW 12.7 mph 18.4 mph N/A   Clear
2:35 PM 55.6 °F - 18.3 °F 23% 30.22 in 10.0 mi NNW 10.4 mph 17.3 mph N/A   Clear
2:55 PM 55.0 °F - 18.3 °F 24% 30.23 in 10.0 mi NNW 9.2 mph - N/A   Clear
3:15 PM 54.3 °F - 18.5 °F 25% 30.23 in 10.0 mi NNW 10.4 mph - N/A   Clear
3:35 PM 53.4 °F - 18.9 °F 26% 30.24 in 10.0 mi NNW 9.2 mph - N/A   Clear
3:55 PM 51.6 °F - 19.2 °F 28% 30.24 in 10.0 mi NNW 6.9 mph - N/A   Clear
4:15 PM 48.0 °F - 19.0 °F 32% 30.24 in 10.0 mi NW 4.6 mph - N/A   Clear
4:35 PM 43.3 °F 39.9 °F 19.2 °F 38% 30.24 in 10.0 mi NW 5.8 mph - N/A   Clear
4:55 PM 41.4 °F 37.6 °F 18.9 °F 41% 30.24 in 10.0 mi NW 5.8 mph - N/A   Clear
5:15 PM 39.2 °F 34.2 °F 19.2 °F 45% 30.24 in 10.0 mi NW 6.9 mph - N/A   Clear
5:35 PM 36.1 °F 30.6 °F 19.6 °F 51% 30.25 in 10.0 mi NNW 6.9 mph - N/A   Clear
5:55 PM 32.4 °F 26.9 °F 19.8 °F 60% 30.25 in 10.0 mi NNW 5.8 mph - N/A   Clear
6:15 PM 32.0 °F 26.4 °F 20.3 °F 62% 30.25 in 10.0 mi SW 5.8 mph - N/A   Clear
6:35 PM 32.9 °F 27.5 °F 20.1 °F 59% 30.26 in 10.0 mi WSW 5.8 mph - N/A   Clear
6:55 PM 34.3 °F 29.2 °F 19.4 °F 54% 30.25 in 10.0 mi SW 5.8 mph - N/A   Clear
7:15 PM 32.9 °F 27.5 °F 19.2 °F 57% 30.25 in 10.0 mi WSW 5.8 mph - N/A   Clear
7:35 PM 32.4 °F 26.0 °F 19.4 °F 59% 30.26 in 10.0 mi West 6.9 mph - N/A   Clear
7:55 PM 31.8 °F 25.4 °F 19.6 °F 61% 30.26 in 10.0 mi WSW 6.9 mph - N/A   Clear
8:15 PM 29.3 °F 24.3 °F 19.0 °F 66% 30.27 in 10.0 mi WSW 4.6 mph - N/A   Clear
8:35 PM 28.2 °F 21.0 °F 18.5 °F 67% 30.26 in 10.0 mi WSW 6.9 mph - N/A   Clear
8:55 PM 28.9 °F 23.9 °F 17.6 °F 63% 30.26 in 10.0 mi West 4.6 mph - N/A   Clear
9:15 PM 28.2 °F 22.0 °F 18.3 °F 66% 30.27 in 10.0 mi WSW 5.8 mph - N/A   Clear
9:35 PM 27.3 °F 19.9 °F 18.1 °F 68% 30.27 in 10.0 mi WSW 6.9 mph - N/A   Clear
9:55 PM 26.4 °F 18.9 °F 17.6 °F 69% 30.27 in 10.0 mi WSW 6.9 mph - N/A   Clear
10:15 PM 26.8 °F 18.5 °F 17.4 °F 68% 30.27 in 10.0 mi WSW 8.1 mph - N/A   Clear
10:35 PM 26.2 °F 18.6 °F 17.6 °F 70% 30.27 in 10.0 mi WSW 6.9 mph - N/A   Clear
10:55 PM 26.2 °F 19.6 °F 17.6 °F 70% 30.28 in 10.0 mi WSW 5.8 mph - N/A   Clear
11:15 PM 25.5 °F 17.8 °F 17.6 °F 72% 30.27 in 10.0 mi WSW 6.9 mph - N/A   Clear
11:35 PM 26.6 °F 16.8 °F 18.3 °F 71% 30.26 in 10.0 mi WSW 10.4 mph - N/A   Clear
11:55 PM 26.8 °F 17.1 °F 18.5 °F 71% 30.26 in 10.0 mi West 10.4 mph - N/A   Clear